Location: Gleizolles
(44.4833°N, 6.7667°E)
Time: 03:01:40
(UTC+00:00)

RS-15 - Pass Details

Date: 08 December 2022
Orbit: 1883 x 2162 km, 64.8° (Epoch: 30 January)

Event Time Altitude Azimuth Distance (km) Brightness Sun altitude
Rises 16:32:58 0° 310° (NW) 5,695 10.8 -7.1°
Reaches altitude 10° 16:37:07 10° 319° (NW) 4,684 10.2 -7.8°
Maximum altitude 16:48:01 34° 22° (NNE) 3,091 8.7 -9.5°
Enters shadow 16:58:03 11° 83° (E) 4,427 9.3 -11.2°
